Group: AFO

Releases: 75.025 · Total size: 6,63 TB

First: 2003-06-26 · Last: 2026-08-31

By section: MP3/FLAC 74.048 (5,05 TB), TV/HD 788 (987,38 GB), Movies/HD 140 (582,99 GB), Movies/SD 42 (37,70 GB), TV/SD 7 (5,98 GB)

Release Section Group Size Files Date ↓
Psycho_Boys_Club-Coldware__Rolling_Thunder-(MAU50452S1)-WEB-2022-AFO MP3/FLAC AFO 21,71 MB 6 2022-03-03
Roger_Shah_and_Cores-Message_from_Beyond-(NOOM081)-WEB-2022-AFO MP3/FLAC AFO 24,48 MB 6 2022-03-03
Caira-The_World_Stands_Still-(SOL218)-WEB-2022-AFO MP3/FLAC AFO 42,86 MB 7 2022-03-03
Nick_Endhem-Genesis-(ITPF026)-WEB-2022-AFO MP3/FLAC AFO 22,25 MB 6 2022-03-03
Glenn_Morrison_and_Jurek_Przezdziecki-Ordinary_Atoms-(FFGR050)-WEB-2022-AFO MP3/FLAC AFO 20,36 MB 6 2022-03-03
Topek-Addiction-(DPM076)-WEB-2022-AFO MP3/FLAC AFO 51,04 MB 7 2022-03-03
Inache-Live_Story-(PPC145)-SINGLE-WEB-2022-AFO MP3/FLAC AFO 17,01 MB 5 2022-03-03
Nerutto-Lost_Island-(INC214)-WEB-2022-AFO MP3/FLAC AFO 29,79 MB 6 2022-03-03
Greg_De_Wijn-Louka-(BT345)-SINGLE-WEB-2022-AFO MP3/FLAC AFO 18,20 MB 5 2022-03-03
Pakka_and_Alexandra_Pride-One_Aim-(SVR029)-WEB-2022-AFO MP3/FLAC AFO 26,50 MB 6 2022-03-03
Ricardo_Piedra-Bungalow-(BP10852022)-WEB-2022-AFO MP3/FLAC AFO 34,20 MB 6 2022-03-03
KINETICA_and_Paul_Skelton-The_Expedition-(NK131)-WEB-2022-AFO MP3/FLAC AFO 30,54 MB 6 2022-03-03
Rob_Dalby-Freedom-(ELEVATE060)-WEB-2022-AFO MP3/FLAC AFO 24,26 MB 6 2022-03-03
Agustin_Ficarra-Crypto-(UV103)-WEB-2022-AFO MP3/FLAC AFO 56,51 MB 7 2022-03-03
Kassey_Voorn-Skyline_(Remixed)-(SB211)-WEB-2022-AFO MP3/FLAC AFO 57,58 MB 7 2022-03-03
Abstract_Vision_and_Aimoon-Pushka-(OT082)-WEB-2022-AFO MP3/FLAC AFO 24,19 MB 6 2022-03-03
Koschk-Neon_World-(BP10842022)-WEB-2022-AFO MP3/FLAC AFO 48,28 MB 7 2022-03-03
Menkee-The_3rd_Plan-(MIRA168)-WEB-2022-AFO MP3/FLAC AFO 51,27 MB 7 2022-03-03
Dmitry_Molosh-Scaur-(DU087)-WEB-2022-AFO MP3/FLAC AFO 35,23 MB 6 2022-03-03
Drival-Crossfire-(RGEN104)-WEB-2022-AFO MP3/FLAC AFO 23,15 MB 6 2022-03-03
GXD_and_Elle_Vee-Sail_(LTN_presents_Ghostbeat_Remix)-(AVAD037)-WEB-2022-AFO MP3/FLAC AFO 20,63 MB 6 2022-03-03
SoundLift_and_Maxine-Anywhere_With_You-(AMSTR426)-WEB-2022-AFO MP3/FLAC AFO 40,26 MB 7 2022-03-03
VA-Two_Of_A_Kind_(2)-(OLDSQL668)-WEB-2022-AFO MP3/FLAC AFO 33,97 MB 6 2022-03-03
Paul_Hawcroft_ft_Patrick_Evans-Broken-(ELPIDAMUSIC034)-WEB-2022-AFO MP3/FLAC AFO 22,91 MB 6 2022-03-03
Ewan_Rill-Matrix_Screen-(SYMM120)-WEB-2022-AFO MP3/FLAC AFO 49,26 MB 7 2022-03-03
Chris_Rane-Flight_To_Infinity-(RDXF082)-WEB-2022-AFO MP3/FLAC AFO 19,75 MB 6 2022-03-03
Paul_Courbet-Meridian-(RDX481)-WEB-2022-AFO MP3/FLAC AFO 22,89 MB 6 2022-03-03
Milad_E_and_David_Deere-Discover-(ITPG056)-WEB-2022-AFO MP3/FLAC AFO 20,98 MB 6 2022-03-03
Billion_Watchers-Brilliant-(BALKAN0725)-WEB-2022-AFO MP3/FLAC AFO 31,96 MB 6 2022-03-03
Yonsh-Digital_Air-(MHR463)-WEB-2022-AFO MP3/FLAC AFO 69,14 MB 8 2022-03-03
Gabriel_Borgo-Levitar-(OOAK177)-WEB-2022-AFO MP3/FLAC AFO 55,13 MB 7 2022-03-03
Sander_Bastiaans-Sirens_Of_Atlantis-(RDXM195)-WEB-2022-AFO MP3/FLAC AFO 25,46 MB 6 2022-03-03
Klur-Between-(ENCOLOR337)-WEB-2022-AFO MP3/FLAC AFO 25,17 MB 6 2022-03-03
Corrado_Baggieri-Chimero-(FS035)-WEB-2022-AFO MP3/FLAC AFO 20,36 MB 6 2022-03-03
Sistersweet-Exotic_Sun-(BC2401)-WEB-2022-AFO MP3/FLAC AFO 50,28 MB 7 2022-03-03
Somnia-Away_From_Home-(ITP192)-WEB-2022-AFO MP3/FLAC AFO 19,85 MB 6 2022-03-03
Another_Big_Cat-Parasols-(RDXD028)-WEB-2022-AFO MP3/FLAC AFO 20,09 MB 6 2022-03-03
Kamilo_Sanclemente-Divine_Eternity-(TRS069)-WEB-2022-AFO MP3/FLAC AFO 56,73 MB 7 2022-03-03
Adam_Francis-MindFuck-(RDX138237)-WEB-2022-AFO MP3/FLAC AFO 26,47 MB 5 2022-03-03
Halaros-Endless_Dream-(PHWE316)-WEB-2022-AFO MP3/FLAC AFO 52,88 MB 6 2022-03-03
Miss_Melera-Violet__Ivory-(PF067)-WEB-2022-AFO MP3/FLAC AFO 53,69 MB 8 2022-03-03
Tim_Eric-Black_Sky-(SV049)-WEB-2022-AFO MP3/FLAC AFO 21,93 MB 6 2022-03-03
Double_Motion-Above_The_Clouds-(ABL084)-WEB-2022-AFO MP3/FLAC AFO 25,48 MB 6 2022-03-03
Ka-Da-Into_The_Darkness-(WATR133)-WEB-2022-AFO MP3/FLAC AFO 25,25 MB 6 2022-03-03
Analog_Sol-Medano-(ZT21101Z)-WEB-2022-AFO MP3/FLAC AFO 24,61 MB 6 2022-03-03
SALAZAR_(COL)-Nozomu-(AHD234)-WEB-2022-AFO MP3/FLAC AFO 55,39 MB 7 2022-03-03
Stayer_X-Hold_Me_Tight__Never_Let_Me_Go-(ENTRMR140)-WEB-2022-AFO MP3/FLAC AFO 35,88 MB 6 2022-03-03
Misha_Roche-Out_of_Nowhere-(EDR255)-WEB-2022-AFO MP3/FLAC AFO 26,07 MB 6 2022-03-03
Abaze-Blumen__Corania-(ESM477AB)-WEB-2022-AFO MP3/FLAC AFO 48,61 MB 8 2022-03-03
Choujaa_and_EMOCA-Overnight-(FLASH251)-WEB-2022-AFO MP3/FLAC AFO 13,35 MB 6 2022-03-02